Beaufort, NC

6:53 PM EST on December 02, 2016 (GMT -0500)
Smith

Weather History for KMRH - October, 2014

Change the Weather History Date:

Friday, October 10, 2014

  Actual Average Record
Temperature  
Mean Temperature 67 °F -  
Max Temperature 78 °F 77 °F 87 °F (1959)
Min Temperature 57 °F 57 °F 43 °F (2000)
Cooling Degree Days 2    
Growing Degree Days 17 (Base 50)    
Moisture  
Dew Point 62 °F    
Average Humidity 81    
Maximum Humidity 97    
Minimum Humidity 58    
Precipitation  
Precipitation 0.00 in - - ()
Sea Level Pressure  
Sea Level Pressure 30.11 in    
Wind  
Wind Speed 2 mph (South)    
Max Wind Speed 8 mph    
Max Gust Speed -    
Visibility 10 miles    
Events      
Averages and records for this station are not official NWS values.
T = Trace of Precipitation, MM = Missing Value Source: NWS Daily Summary

Daily Weather History Graph

Daily Weather History Graph

Search for Another Location

Airport or City:

Trip Planner

Search our weather history database for the weather conditions in past years. The results will help you decide how hot, cold, wet, or windy it might be!

Date:

Astronomy

Oct. 10, 2014 Rise Set
Actual Time 7:08 AM EDT 6:38 PM EDT
Civil Twilight 6:42 AM EDT 7:03 PM EDT
Nautical Twilight 6:13 AM EDT 7:32 PM EDT
Astronomical Twilight 5:44 AM EDT 8:02 PM EDT
Moon 8:23 PM EDT (10/10) 9:21 AM EDT (10/10)
Length of Visible Light 12h 20m
Length of Day
11h 30m
Waning Gibbous, 94% of the Moon is Illuminated
Oct 10
Waning Gibbous
Oct 15
Last Quarter
Oct 23
New
Oct 30
First Quarter
Nov 6
Full

Hourly Weather History & Observations

Time (EDT) Temp. Dew Point Humidity Pressure Visibility Wind Dir Wind Speed Gust Speed Precip Events Conditions
12:58 AM 57.9 °F 55.9 °F 93% 30.12 in 9.0 mi Calm Calm - N/A   Clear
1:58 AM 57.9 °F 57.0 °F 97% 30.12 in 10.0 mi Calm Calm - N/A   Clear
2:58 AM 59.0 °F 57.9 °F 96% 30.11 in 10.0 mi Calm Calm - N/A   Clear
3:58 AM 57.9 °F 57.0 °F 97% 30.10 in 10.0 mi Calm Calm - N/A   Clear
4:58 AM 59.0 °F 57.0 °F 93% 30.12 in 9.0 mi Calm Calm - N/A   Clear
5:58 AM 57.9 °F 57.0 °F 97% 30.12 in 10.0 mi Calm Calm - N/A   Clear
6:58 AM 57.0 °F 55.9 °F 96% 30.13 in 10.0 mi Calm Calm - N/A   Clear
7:58 AM 62.1 °F 60.1 °F 93% 30.14 in 10.0 mi Calm Calm - N/A   Clear
8:58 AM 70.0 °F 62.1 °F 76% 30.15 in 10.0 mi Calm Calm - N/A   Clear
9:58 AM 73.9 °F 61.0 °F 64% 30.15 in 10.0 mi SE 3.5 mph - N/A   Clear
10:58 AM 75.0 °F 60.1 °F 60% 30.14 in 10.0 mi SSE 5.8 mph - N/A   Clear
11:58 AM 77.0 °F 61.0 °F 58% 30.14 in 10.0 mi Variable 5.8 mph - N/A   Clear
12:58 PM 77.0 °F 62.1 °F 60% 30.12 in 10.0 mi SSE 5.8 mph - N/A   Clear
1:58 PM 77.0 °F 63.0 °F 62% 30.10 in 10.0 mi SSE 6.9 mph - N/A   Clear
2:58 PM 77.0 °F 64.0 °F 64% 30.09 in 10.0 mi SSE 6.9 mph - N/A   Clear
3:58 PM 75.9 °F 64.0 °F 67% 30.08 in 10.0 mi South 6.9 mph - N/A   Clear
4:58 PM 75.9 °F 64.9 °F 69% 30.06 in 10.0 mi South 5.8 mph - N/A   Clear
5:58 PM 73.9 °F 64.9 °F 73% 30.06 in 10.0 mi South 6.9 mph - N/A   Clear
6:58 PM 72.0 °F 66.0 °F 81% 30.07 in 10.0 mi South 5.8 mph - N/A   Clear
7:58 PM 72.0 °F 66.9 °F 84% 30.09 in 10.0 mi South 5.8 mph - N/A   Clear
8:58 PM 73.0 °F 69.1 °F 87% 30.08 in 10.0 mi South 6.9 mph - N/A   Clear
9:58 PM 73.0 °F 69.1 °F 87% 30.08 in 10.0 mi South 8.1 mph - N/A   Clear
10:58 PM 73.0 °F 70.0 °F 90% 30.08 in 10.0 mi South 6.9 mph - N/A   Clear
11:58 PM 73.0 °F 70.0 °F 90% 30.07 in 10.0 mi South 6.9 mph - N/A   Clear